User: anonymous   Login
Location: Caltech
(34.1382°N, 118.1253°W)
Time: 00:47:32
(UTC-07:00)
Language:

Tiros 1 despin weight - Orbit

View from above orbital plane
View from above orbital plane
View from above satellite
View from above satellite

Ground track
Ground track

The orbit data is extracted from the following two-line orbital elements,

1 00115U 60002D   15185.42856592  .00000788  00000-0  12432-3 0  9994
2 00115 048.1677 331.5698 0035717 197.9857 161.9794 14.82175791944308
Epoch (UTC): 04 July 2015 10:17:08
Eccentricity: 0.0035717
inclination: 48.1677°
perigee height: 597 km
apogee height: 647 km
right ascension of ascending node: 331.5698°
argument of perigee: 197.9857°
revolutions per day: 14.82175791
mean anomaly at epoch: 161.9794°
orbit number at epoch: 94430

The dashed part of the orbit path shows where the satellite is in the earth's shadow,  

DLR